Regional Weather Roundup
Issued by NWS

Home | Current Version | Previous Version | Graphics & Text | Print | Product List | Glossary On
Versions: 1 2 3 4 5 6 7 8 9 10 11 12 13 14 15 16 17 18 19 20 21 22 23 24 25 26 27 28 29 30 31 32 33 34 35 36 37 38 39 40 41 42 43 44 45 46 47 48 49 50
070
ASUS43 KBIS 260002
RWRND

NORTH DAKOTA REGIONAL WEATHER ROUNDUP
NATIONAL WEATHER SERVICE BISMARCK ND
700 PM CDT WED MAY 25 2016

NOTE: "FAIR" INDICATES FEW OR NO CLOUDS BELOW 12,000 FEET WITH NO
SIGNIFICANT WEATHER AND/OR OBSTRUCTIONS TO VISIBILITY.


NDZ001>003-009>011-017-260100-
NORTHWEST NORTH DAKOTA

CITY           SKY/WX    TMP DP  RH WIND       PRES   REMARKS
WILLISTON      PTSUNNY   59  49  69 NW12      29.81F
6HR MIN TEMP:  53; 6HR MAX TEMP:  60; 6HR PCP: TRACE;

MINOT          LGT RAIN  62  58  86 E9        29.75R
MINOT AFB      CLOUDY    60  56  86 E7        29.74S
$$

NDZ018>021-031>035-040>046-260100-
SOUTHWEST NORTH DAKOTA

CITY           SKY/WX    TMP DP  RH WIND       PRES   REMARKS
BISMARCK       TSTM      59  56  89 SE5       29.75R
6HR MIN TEMP:  58; 6HR MAX TEMP:  71; 6HR PCP:  0.46;

DICKINSON      MOSUNNY   57  43  59 NW17      29.81R
GARRISON         N/A     60  56  86 W9        29.75F
6HR MIN TEMP:  59; 6HR MAX TEMP:  66; 6HR PCP:  0.01;

HETTINGER ARPT SUNNY     64  43  46 NW22G28   29.84S
$$

NDZ004>008-012>016-024-026-027-054-260100-
NORTHEAST NORTH DAKOTA

CITY           SKY/WX    TMP DP  RH WIND       PRES   REMARKS
GRAND FORKS    CLOUDY    62  59  90 NE7       29.66F
GRND FRKS AFB  RAIN      60  60 100 N9        29.68F FOG
DEVILS LAKE    CLOUDY    60  57  89 NE15      29.75F
$$

NDZ022-023-025-028>030-036>039-047>053-260100-
SOUTHEAST NORTH DAKOTA

CITY           SKY/WX    TMP DP  RH WIND       PRES   REMARKS
FARGO          MOSUNNY   66  58  75 W9        29.72S
6HR MIN TEMP:  63; 6HR MAX TEMP:  70; 6HR PCP:  0.30;

$$





USA.gov is the U.S. government's official web portal to all federal, state and local government web resources and services.